Lapse_Rate
6.0 6.1 5.8 5.5 5.2 5.3 5.6 5.5 5.4 5.8 5.4 5.2 5.2 4.8 5.8 6.2 6.3 6.5 6.5 6.8 6.9 6.9 6.7 6.4 6.3 6.2 6.1 5.7 5.6 5.5 5.3 5.5 5.4 5.3 5.5 5.7 6.0 6.2 6.0 6.3 6.3 6.6 6.6 6.6
6.1 5.7 5.9 5.8 5.7 5.5 5.3 5.3 5.5 5.6 5.4 5.1 5.3 5.1 6.0 6.7 6.4 6.4 6.3 6.4 6.6 6.7 6.6 6.5 6.2 6.0 6.1 6.0 5.6 5.5 5.6 5.4 5.2 5.2 5.4 5.5 5.7 5.7 6.0 5.9 6.0 6.2 6.5 6.7
5.9 5.9 6.0 6.1 5.7 5.6 5.4 5.4 5.7 5.6 5.4 5.1 5.1 5.1 6.5 7.0 6.4 6.4 6.4 6.4 6.2 6.4 6.7 6.6 6.3 6.1 6.1 6.1 6.0 5.9 5.8 5.7 5.6 5.6 5.6 5.4 5.5 5.7 5.9 6.1 6.4 6.4 6.4 6.5
6.2 6.1 5.9 5.8 5.9 5.9 5.7 5.7 5.5 5.5 5.1 4.8 5.0 4.3 6.8 6.9 6.6 6.3 6.4 6.3 6.1 6.1 6.2 6.3 6.4 6.4 6.4 6.5 6.4 6.2 5.9 5.9 6.0 5.8 5.7 5.9 5.8 5.7 6.0 6.1 6.0 6.0 6.1 6.2
6.0 6.4 6.2 6.0 5.9 5.8 5.7 5.8 5.5 5.3 5.0 4.7 4.9 4.5 6.8 6.8 6.2 6.2 6.1 6.0 5.9 6.0 6.0 6.2 6.3 6.3 6.1 6.2 6.3 6.5 6.2 5.8 5.7 5.8 5.6 5.6 5.8 5.9 5.9 6.1 6.0 5.9 6.0 6.1
6.3 6.1 6.1 6.2 6.3 5.6 5.9 5.7 5.6 5.4 5.1 3.6 4.5 4.9 6.8 6.2 5.9 5.9 6.1 6.0 5.9 5.8 5.9 6.0 5.9 5.9 6.0 6.1 6.1 6.2 6.1 5.9 5.6 5.6 5.4 5.2 5.2 5.3 5.4 5.9 5.9 5.9 5.9 6.0
6.0 6.0 5.9 6.0 5.9 5.7 5.7 5.6 4.9 4.0 3.4 3.3 4.6 4.6 6.7 6.3 6.3 6.2 6.4 6.3 6.1 5.9 5.8 5.9 6.1 6.1 6.1 6.0 6.1 6.1 6.2 6.1 5.8 5.6 5.6 5.4 5.4 5.5 5.2 5.1 5.4 5.7 5.9 5.9
6.4 5.9 6.0 5.9 5.8 5.8 5.2 5.3 5.3 4.4 4.0 3.8 4.4 4.5 6.6 6.4 6.3 6.3 6.3 6.1 5.9 5.8 5.9 6.1 6.2 6.2 6.2 6.1 6.1 6.0 6.0 5.9 5.7 5.6 5.6 5.6 5.6 5.5 5.3 5.2 5.2 5.1 5.5 5.7
6.5 6.0 6.1 6.0 5.6 5.5 5.2 5.0 5.2 5.1 3.9 3.5 5.1 6.1 6.6 6.7 6.7 6.2 5.7 5.5 5.7 6.0 5.9 5.7 5.6 5.7 5.8 5.8 5.9 6.0 5.9 5.9 5.9 5.9 5.8 5.7 5.6 5.5 5.5 5.3 5.3 5.2 5.3 5.3
6.5 6.1 5.9 5.8 5.4 5.4 5.4 5.5 5.1 5.2 3.1 4.3 5.0 5.5 6.4 6.2 5.9 5.4 5.2 5.5 5.5 5.3 5.2 5.3 5.4 5.6 5.7 5.8 5.8 5.7 5.6 5.6 5.7 6.0 6.1 6.1 6.1 5.8 5.7 5.7 5.7 5.6 5.5 5.4
6.4 6.2 5.5 5.5 5.3 5.5 5.3 5.2 5.3 5.2 4.8 3.5 4.5 5.9 6.2 5.9 5.4 5.3 5.2 5.3 5.3 5.3 5.1 5.2 5.3 5.3 5.4 5.3 5.5 5.6 5.7 5.7 5.6 5.6 5.9 6.3 6.2 6.1 6.0 6.1 6.2 6.3 6.2 6.1
6.2 6.1 5.3 5.3 5.3 5.2 5.0 5.1 5.3 5.4 4.3 4.4 4.1 5.7 6.0 5.7 5.2 4.8 4.9 5.0 4.8 4.7 4.6 4.5 4.8 5.4 5.6 5.5 5.2 5.3 5.5 5.4 5.2 5.3 5.5 6.1 6.2 6.4 6.4 6.4 6.2 6.2 6.4 6.3
6.1 5.8 5.3 5.1 5.1 5.0 5.0 5.1 4.9 4.9 4.7 4.8 4.0 5.7 6.0 5.6 5.2 5.0 5.0 4.9 4.8 4.6 4.6 4.5 4.5 4.9 5.1 5.2 5.4 5.5 5.8 5.7 5.6 5.9 6.2 6.6 6.9 7.0 7.0 6.6 6.4 6.1 6.2 6.4
5.8 5.8 5.8 5.3 5.4 5.2 4.9 5.0 4.9 4.7 4.5 4.5 5.3 6.3 6.0 5.5 5.2 5.2 4.9 4.7 4.5 4.2 4.4 4.6 4.7 5.1 4.9 4.9 5.1 5.3 5.6 5.8 6.4 6.5 6.6 6.9 6.6 7.0 7.0 7.1 6.9 6.2 6.2 6.2
5.4 5.5 5.5 5.4 5.2 5.1 5.1 5.1 5.0 4.9 4.7 4.9 5.9 5.8 6.0 5.4 5.3 5.1 4.8 4.8 4.6 4.3 4.6 4.5 4.9 4.8 4.5 4.8 4.6 4.9 5.1 5.9 6.7 6.8 7.0 6.9 7.0 7.1 6.9 7.1 7.1 6.7 6.5 6.4
5.3 5.3 5.3 5.5 5.4 5.3 5.3 5.3 5.1 5.0 4.9 5.2 5.8 6.0 5.5 5.4 5.3 5.0 4.7 5.1 4.5 4.2 4.3 4.3 5.1 4.6 4.7 4.7 4.6 4.5 4.9 6.0 6.8 7.2 7.4 7.5 7.4 6.9 7.0 6.8 6.9 6.4 6.2 6.4
5.1 5.0 5.0 5.2 5.1 5.1 5.5 6.0 5.8 5.7 5.9 6.0 5.6 6.0 5.5 5.6 5.3 4.9 4.7 4.7 4.5 4.6 4.3 4.3 4.7 4.7 3.9 4.0 4.4 4.7 5.0 5.6 6.4 6.9 6.9 6.7 6.7 6.7 6.7 6.5 6.5 6.4 6.0 5.8
5.3 4.9 4.8 4.9 5.0 4.2 5.9 6.1 6.2 6.4 6.3 6.1 6.0 5.6 5.4 5.4 5.2 4.9 4.6 4.7 4.6 4.2 4.1 4.2 4.5 4.1 4.3 4.3 4.4 4.7 4.8 5.4 6.0 6.3 6.3 6.4 6.4 6.4 6.3 6.3 5.6 6.0 5.8 5.9
5.1 5.2 5.1 4.6 4.5 5.6 6.3 6.2 6.4 6.3 6.3 6.1 5.7 5.6 5.6 5.3 5.2 5.0 4.7 5.1 4.6 4.4 4.6 4.1 4.2 4.4 4.5 4.6 4.3 4.4 4.9 5.9 5.9 6.0 6.1 6.0 6.2 6.1 6.1 6.0 6.1 6.2 6.1 6.3
5.2 4.9 4.8 4.8 4.9 4.6 5.9 6.1 6.2 6.3 6.2 5.9 5.8 5.9 5.9 5.6 5.5 5.0 5.3 5.4 4.9 4.5 4.5 4.2 4.6 4.2 4.2 4.4 4.4 4.4 4.7 5.8 5.9 5.8 5.9 6.0 5.8 5.9 5.6 5.7 5.5 5.4 5.5 5.4
5.0 4.9 4.8 5.1 4.9 5.4 6.0 5.9 6.1 6.0 6.0 6.0 6.2 6.1 6.1 5.4 5.3 5.2 5.4 5.7 5.6 5.6 5.6 4.8 4.6 4.7 4.6 5.1 4.9 4.8 5.0 5.2 5.6 5.6 5.7 5.6 5.5 5.3 5.0 4.9 5.0 4.9 4.9 5.0
5.5 5.2 5.0 4.8 4.9 5.0 6.0 5.8 6.0 5.9 5.8 6.1 6.1 6.2 6.0 6.0 5.7 5.4 5.3 5.6 5.9 5.9 5.7 5.9 4.9 4.9 5.1 5.0 4.7 4.7 5.2 5.2 5.1 5.2 5.3 5.3 5.1 4.9 4.8 4.8 4.8 5.1 5.3 5.3
5.7 5.7 5.6 5.5 5.8 5.8 5.9 5.7 6.0 5.9 6.0 6.0 6.0 6.1 6.0 6.1 6.1 5.5 5.4 5.6 5.7 5.9 5.9 5.8 5.7 5.5 5.1 5.1 5.1 5.0 5.1 5.1 5.1 5.1 4.9 4.9 4.9 5.0 5.1 5.2 5.1 5.2 5.2 5.4
6.1 5.9 5.7 5.7 5.9 5.9 5.8 5.8 5.9 5.9 6.0 6.0 6.0 6.1 6.2 5.9 5.9 5.9 5.7 5.5 5.7 5.8 5.8 5.7 5.6 5.7 5.5 5.5 5.4 5.1 5.1 5.0 4.9 4.9 5.0 5.1 5.2 5.1 5.2 5.3 5.5 5.7 5.9 6.0
6.0 5.9 5.9 5.9 5.9 5.8 6.0 5.8 5.9 5.8 5.8 6.0 6.1 6.2 6.2 6.2 6.1 5.8 5.9 5.7 5.5 5.6 5.3 5.4 5.5 5.6 5.6 5.6 5.3 5.1 5.1 5.2 5.1 5.1 5.0 5.1 5.1 5.2 5.4 5.6 5.7 5.8 5.9 6.0
6.2 6.0 5.8 5.8 5.6 5.8 5.9 6.0 5.9 5.9 6.1 6.2 6.4 6.5 6.4 6.4 6.3 6.2 6.1 5.9 5.9 5.6 5.2 5.1 5.4 5.5 5.3 5.2 5.2 5.2 5.2 5.2 5.2 5.1 5.0 5.1 5.2 5.3 5.5 5.7 5.7 5.9 6.0 6.1
Wind_Speed
8 7 10 16 6 4 6 4 3 3 1 2 5 4 12 11 7 8 9 11 14 13 10 8 9 9 9 6 8 9 8 11 9 8 9 9 11 10 9 8 17 16 15 17
6 5 4 11 9 5 5 5 2 2 1 1 5 9 16 14 7 10 12 13 10 8 9 9 9 8 8 10 8 8 9 9 9 9 8 8 10 10 11 8 11 16 15 17
5 9 11 11 9 8 3 3 2 3 3 2 7 7 5 3 3 5 6 5 6 8 13 12 7 8 7 8 9 9 9 10 10 12 6 3 3 2 5 4 7 10 16 17
4 5 14 11 6 3 2 5 2 3 2 2 4 5 6 4 7 6 8 9 8 8 7 7 7 7 8 9 7 8 8 8 7 7 7 11 10 9 7 9 10 9 15 14
2 7 8 10 6 11 3 5 5 3 4 2 2 2 7 2 4 3 7 6 6 6 6 8 8 6 7 7 6 7 7 7 8 8 7 8 10 8 4 4 7 7 9 12
4 3 3 2 5 2 9 5 6 4 3 1 2 3 5 1 2 4 4 6 7 8 9 10 7 6 6 7 7 5 6 7 6 6 7 12 14 9 5 5 6 6 5 7
5 3 2 4 7 5 4 5 2 3 3 4 1 0 8 3 5 2 2 7 8 7 9 9 12 11 10 10 8 6 6 6 5 5 6 8 9 7 11 10 9 8 7 6
4 0 2 1 3 6 2 5 4 4 1 3 3 5 4 3 3 3 2 5 6 8 7 8 9 8 9 9 9 8 8 7 6 5 6 5 7 5 7 7 6 8 8 10
4 3 1 3 3 3 3 2 3 6 3 3 3 6 6 4 2 3 8 9 10 8 8 8 8 7 9 9 9 7 8 8 7 6 5 6 6 7 8 8 6 5 3 4
2 4 2 3 3 7 3 7 3 3 2 2 4 4 4 0 1 5 9 10 9 7 8 8 7 7 6 8 7 7 6 7 8 8 5 4 6 7 6 4 6 5 5 6
3 3 2 4 1 6 2 1 5 4 3 3 2 4 5 4 2 4 9 9 9 9 8 7 7 7 7 7 7 7 7 8 9 8 6 6 4 1 3 4 5 6 7 9
1 4 3 2 2 2 2 5 4 4 3 1 1 6 3 6 3 2 8 8 6 6 7 8 8 8 8 7 7 6 6 6 6 6 5 4 3 2 4 5 5 7 9 9
5 2 3 1 3 4 3 3 4 5 3 4 4 5 1 6 6 6 7 6 7 9 10 9 9 7 9 8 7 7 7 6 6 6 5 5 4 3 4 5 5 7 9 10
5 3 3 5 3 3 2 4 5 5 3 3 6 7 12 12 9 10 6 5 8 8 8 7 6 8 7 6 6 6 6 6 7 6 5 4 5 5 6 7 9 8 9 11
3 3 3 2 4 3 4 4 7 6 5 6 4 6 12 12 12 11 2 6 6 9 12 12 9 6 6 7 7 6 7 6 5 6 8 8 8 9 10 11 12 12 12 12
2 3 2 3 3 5 4 7 8 9 6 10 15 19 20 16 7 4 5 8 10 8 9 9 8 7 7 7 7 8 8 7 6 8 10 10 10 12 12 13 12 13 13 14
3 4 3 3 4 5 5 8 12 6 6 11 10 14 9 6 5 2 4 5 6 7 8 6 6 5 7 7 6 7 7 6 8 8 8 9 9 11 11 12 12 11 13 13
4 4 2 2 4 1 5 2 5 13 8 14 9 11 9 6 2 3 2 3 4 5 5 5 5 5 7 6 6 7 7 7 8 7 7 8 9 10 11 12 10 9 10 11
3 4 2 1 2 6 2 3 6 6 4 8 13 9 5 2 2 3 2 2 2 3 2 3 5 5 7 7 6 6 7 7 8 8 8 8 9 9 11 11 9 8 10 9
5 5 3 3 2 4 3 2 1 3 3 3 5 4 2 1 4 1 2 1 3 3 4 4 5 5 6 6 6 7 8 7 7 8 9 9 9 11 11 8 8 6 6 8
3 2 6 3 2 6 8 5 2 3 4 2 3 4 4 3 1 4 4 4 4 5 4 5 5 5 5 5 6 8 6 7 6 7 8 9 10 9 8 7 5 6 7 6
7 5 3 3 3 7 4 2 2 3 1 2 3 3 4 4 6 5 4 4 4 4 5 6 5 6 6 6 6 7 7 5 7 9 9 8 7 5 5 6 4 5 6 6
4 5 4 7 5 4 3 3 2 3 4 2 2 3 6 6 4 7 5 4 3 5 5 5 4 5 5 6 4 7 4 6 7 8 7 7 5 5 4 5 5 4 5 5
3 4 2 1 3 6 8 6 6 5 5 3 4 4 7 6 7 6 6 5 4 6 7 6 5 6 6 6 5 5 6 6 7 7 6 5 5 6 5 5 4 4 4 4
4 5 5 4 7 7 5 4 4 3 3 2 2 4 7 7 8 7 6 6 6 5 5 5 6 6 7 6 6 5 5 6 6 6 5 5 5 5 5 4 4 4 2 4
4 5 4 3 2 2 5 4 2 4 4 5 5 2 4 6 9 7 7 6 6 6 5 5 6 5 5 5 5 4 5 6 6 5 4 4 4 4 4 4 4 9 8 8
Wind_Direction
168 178 195 186 159 162 144 151 166 222 63 308 255 264 284 272 260 255 252 264 267 267 270 243 245 237 238 242 223 218 205 209 206 200 201 203 217 214 209 201 204 199 192 191
127 197 173 173 148 112 110 124 192 303 350 337 319 290 268 263 235 235 244 255 270 289 279 266 255 245 224 236 232 223 216 221 209 200 209 206 209 223 217 208 206 203 186 185
122 143 153 151 112 158 79 133 172 218 350 46 330 287 291 326 2 314 318 291 305 301 299 296 288 272 265 239 236 224 213 212 215 210 200 104 82 87 201 193 203 201 187 190
49 134 140 138 151 94 84 219 134 82 71 251 12 289 298 340 329 62 10 23 359 337 334 324 315 301 288 269 260 242 224 209 214 211 201 201 210 212 208 208 212 202 191 194
280 133 129 148 166 166 185 117 116 96 94 29 341 117 270 357 60 93 25 12 353 332 332 342 342 323 312 306 289 285 259 212 204 197 197 205 219 222 193 198 203 203 204 192
76 66 60 111 66 147 141 86 56 53 85 22 270 172 288 113 63 324 345 345 345 345 352 359 353 352 359 4 8 334 299 271 258 214 215 209 214 209 189 186 192 186 198 193
39 13 38 99 82 44 81 85 334 359 21 218 289 146 246 287 307 202 111 342 337 340 6 358 359 351 348 349 350 360 2 327 318 257 229 221 233 222 210 205 203 187 188 192
128 203 170 105 127 160 84 144 162 194 138 276 352 235 254 231 9 112 13 307 322 355 349 352 341 337 335 335 332 338 342 324 326 313 282 254 234 219 217 211 214 205 202 201
120 30 40 63 116 119 186 69 183 107 28 44 242 285 317 45 134 330 348 347 339 332 336 339 332 336 329 329 324 321 327 314 309 290 273 273 269 237 222 214 203 205 187 160
175 87 10 117 93 38 126 154 77 5 104 273 270 282 245 288 205 303 340 334 316 302 309 331 328 327 315 316 312 318 331 317 313 318 300 268 243 244 247 184 182 155 126 122
109 90 358 105 228 161 113 78 56 105 93 165 293 270 207 216 211 354 323 320 320 323 335 313 312 310 305 305 320 322 343 342 333 336 332 349 356 358 127 129 126 126 120 131
77 109 145 100 240 147 137 162 132 120 208 39 147 276 237 246 231 285 285 288 318 340 316 319 319 320 327 330 340 355 354 350 336 340 345 15 47 84 100 103 120 129 132 135
171 53 72 356 360 8 178 181 121 108 95 209 144 260 237 271 298 299 289 341 345 342 344 335 324 342 354 1 4 4 360 355 360 8 5 17 59 71 94 108 119 127 125 124
88 100 148 183 197 138 152 175 162 126 132 203 234 291 297 299 312 313 331 355 345 351 335 310 351 7 2 2 13 9 13 9 10 16 28 24 54 61 76 86 91 92 97 100
98 95 346 268 226 189 201 189 169 182 179 180 250 227 266 293 299 304 4 357 353 359 0 12 1 358 2 15 14 12 21 19 18 46 54 49 59 70 73 71 79 84 85 89
14 117 40 306 351 216 248 226 199 212 226 255 260 278 277 282 280 295 22 358 2 354 350 5 347 5 23 24 19 22 22 10 37 58 60 67 71 75 76 77 79 83 85 84
101 132 56 292 343 326 298 225 202 182 200 215 231 244 286 295 300 355 2 5 343 346 355 3 343 27 37 35 29 30 20 28 37 48 72 82 87 84 84 85 89 91 91 91
116 101 109 292 353 341 243 178 178 200 228 219 261 270 290 294 67 107 45 343 346 352 6 9 2 35 56 56 42 44 34 38 49 54 65 66 74 81 85 84 86 84 87 88
111 120 110 311 281 287 300 166 147 178 269 206 224 262 279 22 118 203 57 65 20 27 52 43 35 39 56 54 58 61 55 51 57 51 47 57 67 77 79 73 73 71 75 77
77 104 118 199 270 247 251 216 63 138 319 172 186 234 241 73 350 356 108 76 89 56 51 54 55 53 60 64 75 77 66 59 59 61 66 69 76 80 73 68 72 75 92 91
126 160 210 238 251 278 251 273 128 85 237 188 211 244 184 209 161 125 127 97 80 72 59 59 61 61 59 70 80 77 73 66 62 71 76 73 72 73 82 81 69 76 77 85
183 163 182 177 217 265 189 83 175 217 247 228 236 231 203 121 132 127 129 121 111 90 70 68 64 65 64 77 91 81 68 66 73 73 72 69 70 78 82 87 76 65 82 85
213 187 184 181 214 245 209 257 254 182 220 238 230 200 154 148 177 148 141 139 121 112 94 93 88 76 67 85 87 92 80 86 80 79 76 77 69 59 66 87 85 80 78 84
246 167 206 85 256 254 259 266 254 199 212 204 226 195 170 161 158 148 141 145 139 127 115 122 120 107 94 91 82 89 104 110 106 98 88 84 87 74 61 64 68 79 78 86
199 146 209 261 285 279 254 247 273 222 211 205 170 207 189 152 164 158 148 152 139 135 130 131 117 113 113 116 114 112 104 105 96 91 88 80 77 83 83 77 99 91 75 110
194 193 200 233 290 226 267 299 281 235 232 221 185 190 180 167 159 148 150 149 148 149 143 128 122 120 126 123 120 126 129 125 120 108 104 107 96 80 75 80 48 72 84 87